Theta_e
327 327 327 326 324 323 321 319 318 318 319 319 316 315 316 316 314 316 318 316 313 311 310 310 311 312 316 318 320 322 323 323 323 323 323 324 324 323 323 325 327 329
327 328 328 325 323 320 315 313 314 316 319 319 316 316 319 317 316 317 316 312 309 306 306 309 313 316 319 321 321 322 322 322 322 322 321 322 322 321 321 322 323 326
328 328 326 323 321 317 314 315 317 320 321 320 318 318 317 315 316 317 314 310 308 305 306 310 315 318 320 321 321 321 320 321 320 320 320 320 321 320 321 321 322 324
327 326 325 322 319 317 317 318 320 322 322 319 317 316 314 314 317 316 313 311 307 304 306 310 315 318 319 320 321 320 319 319 318 319 319 318 318 317 318 321 321 323
326 326 326 323 320 318 318 319 322 323 322 317 314 312 312 315 318 317 313 310 307 305 305 308 312 316 318 319 320 319 319 319 318 318 318 316 316 317 317 319 320 322
326 327 326 323 320 318 318 319 321 323 322 316 311 310 313 317 319 318 314 309 307 305 305 306 308 313 318 318 318 319 319 318 317 317 317 317 318 319 318 319 319 321
327 328 327 324 319 318 318 318 319 322 322 316 310 310 314 319 321 320 317 313 310 307 305 305 306 311 316 318 318 317 316 315 315 316 317 318 319 319 320 320 320 321
328 328 327 325 320 319 321 320 320 322 321 317 313 310 313 319 321 320 319 318 315 311 307 306 306 309 314 317 316 312 309 310 314 316 317 318 318 319 319 319 319 320
329 329 328 326 321 320 322 323 322 322 321 319 317 314 315 320 321 321 320 319 318 314 309 307 307 307 311 314 312 308 307 309 314 316 317 318 318 318 318 319 320 319
329 329 329 326 323 321 322 323 322 322 321 321 320 318 318 320 320 319 320 319 317 314 309 307 306 305 308 310 310 311 311 312 314 316 317 318 318 317 318 319 319 319
329 329 329 327 324 323 323 323 321 322 322 322 320 319 318 318 317 317 319 319 317 314 310 307 305 305 307 309 310 312 313 313 314 315 316 317 316 316 317 317 318 319
328 328 328 326 324 324 324 323 322 322 322 321 320 319 318 315 313 312 314 316 317 315 311 308 306 307 309 309 309 310 311 311 312 313 314 315 315 315 316 316 316 316
327 326 326 325 324 324 324 323 322 321 322 320 319 318 317 315 312 308 309 313 316 315 311 308 308 309 309 310 310 310 310 310 310 311 313 314 315 317 318 317 317 316
326 326 325 325 324 323 323 323 322 321 321 320 318 318 316 315 312 308 308 313 315 314 310 307 308 309 310 311 312 312 311 311 312 313 315 315 317 318 318 318 319 318
326 325 325 325 324 322 322 323 322 321 320 318 317 317 316 315 313 310 308 309 310 310 308 306 308 311 311 312 315 315 314 314 314 315 317 318 319 319 318 318 319 319
326 325 325 324 323 323 323 322 322 321 319 317 316 316 314 313 312 310 307 306 307 308 307 306 308 310 310 310 312 314 316 317 315 316 318 319 319 319 319 318 319 320
325 325 325 323 322 323 323 322 322 321 320 317 316 317 315 312 311 309 307 307 309 310 307 307 308 308 308 308 309 310 314 318 319 320 319 319 320 321 321 320 320 320
324 324 324 323 322 320 321 322 322 320 319 316 315 317 317 315 313 311 308 308 310 310 309 309 309 309 310 310 310 311 313 317 322 323 321 321 321 321 322 323 322 321
322 322 322 323 322 320 320 322 321 318 316 312 311 315 317 316 315 314 312 310 310 309 309 311 311 311 311 311 312 313 313 316 321 323 323 322 323 322 323 324 324 323
321 321 321 322 321 321 321 321 320 318 316 312 310 311 314 316 318 318 317 315 313 312 313 314 313 313 313 311 311 313 315 317 319 321 322 322 323 323 323 323 324 323
320 320 320 321 320 320 320 320 319 318 317 315 312 311 311 313 317 319 319 317 316 315 315 315 314 314 313 313 313 314 316 318 319 319 319 319 320 321 321 321 322 321
319 320 320 320 320 320 319 320 319 318 316 315 313 312 313 313 315 319 319 318 317 315 315 315 315 315 315 314 314 316 317 319 319 319 318 318 318 319 319 320 320 320
319 320 320 320 319 319 319 319 319 318 317 316 315 315 315 315 316 319 319 319 317 316 317 317 316 316 316 315 316 317 318 319 319 319 319 319 319 319 319 320 320 320
318 318 318 318 318 318 318 319 319 319 318 318 318 318 318 317 318 320 319 319 318 317 318 319 318 317 318 317 317 317 318 318 319 319 319 319 319 319 318 319 320 319
316 316 316 317 317 317 318 319 319 319 319 318 319 319 319 319 319 319 319 319 319 318 318 318 318 318 318 318 318 318 318 319 319 318 319 319 319 319 319 318 319 319
313 314 314 315 315 315 315 316 317 318 318 318 318 318 318 318 317 318 318 318 318 318 318 318 318 317 317 317 317 317 317 318 318 319 319 319 320 320 320 319 319 320
Wind_Speed
13 13 13 12 11 10 11 14 15 15 14 14 14 15 14 13 12 11 10 9 8 7 7 8 8 10 10 10 9 8 7 7 8 9 10 9 8 8 7 6 6 6
13 14 14 13 12 12 12 14 15 15 14 14 15 14 13 13 13 12 11 10 8 7 7 8 10 12 12 11 11 11 10 10 10 10 10 9 8 8 7 6 6 6
15 14 13 12 12 13 14 14 16 15 13 13 14 14 14 15 15 13 12 9 7 7 8 10 12 13 13 13 13 12 12 11 11 10 9 7 6 6 6 6 6 7
17 15 13 11 11 13 14 15 16 14 13 13 14 14 15 17 16 14 12 9 8 8 9 10 12 13 13 14 13 13 12 11 11 9 7 5 5 6 6 6 7 8
18 16 13 12 11 13 15 16 16 13 13 13 13 14 16 18 17 15 12 11 9 9 10 10 12 13 14 14 13 12 11 10 9 8 6 6 7 7 7 7 8 9
18 16 14 12 12 14 16 17 17 14 13 13 12 14 17 18 17 14 13 12 11 10 10 10 12 14 14 13 12 11 10 8 9 8 7 8 9 9 8 8 8 9
19 16 14 13 13 15 16 16 16 14 13 13 13 14 17 17 15 14 13 12 11 11 10 10 11 14 14 12 11 10 10 9 9 9 9 8 9 8 8 8 9 9
20 17 15 14 14 16 15 14 14 15 13 13 13 14 16 16 14 13 13 12 11 11 10 10 10 13 14 12 11 10 10 11 11 10 10 9 9 8 8 9 9 9
20 19 17 15 15 16 16 14 14 14 13 13 13 13 14 14 14 14 13 12 12 11 11 11 11 13 14 12 11 11 11 13 13 12 11 10 9 8 8 8 9 10
19 19 18 16 15 15 15 14 13 14 14 13 13 13 13 13 13 14 13 12 12 12 12 13 13 14 14 13 12 12 12 13 13 12 11 9 8 8 8 7 8 9
18 18 18 16 14 14 14 12 12 14 14 13 13 13 13 13 14 14 14 13 12 12 12 13 14 14 14 14 14 14 13 12 11 11 10 9 8 8 7 7 6 7
18 18 18 17 15 14 13 12 12 14 13 12 13 13 13 13 14 15 16 14 12 11 12 13 14 15 14 14 14 14 13 12 11 10 9 8 8 7 7 6 6 6
17 17 17 17 18 17 15 12 12 13 12 11 12 12 12 12 13 15 16 14 11 11 12 14 15 15 14 13 13 12 11 10 9 9 8 7 7 6 6 6 5 5
14 17 17 16 17 17 16 14 13 13 12 12 12 11 11 11 12 14 15 14 13 12 13 15 15 14 14 12 11 10 9 8 8 7 7 7 7 6 6 6 5 4
13 16 18 17 16 16 17 17 16 15 13 12 12 11 10 10 11 12 14 15 15 14 14 15 15 14 13 12 11 9 8 7 7 7 7 7 7 7 6 6 5 4
14 17 19 19 18 18 20 20 19 17 15 13 13 11 10 11 11 11 12 12 13 13 13 14 14 14 14 13 11 9 8 7 7 7 8 8 8 8 7 7 6 5
14 19 21 20 19 19 20 21 21 21 19 16 13 12 11 11 11 11 11 11 10 10 10 11 12 13 13 13 12 10 9 8 7 8 8 8 9 8 8 8 7 7
12 18 21 20 18 19 20 21 23 22 21 18 14 12 11 11 9 9 10 10 9 8 9 9 10 12 12 12 12 11 11 10 9 8 9 9 9 9 8 8 8 8
9 14 18 20 20 21 22 22 21 19 18 17 15 13 11 10 9 9 9 10 9 8 9 10 10 11 13 14 13 13 13 13 11 10 10 10 10 10 9 9 9 9
9 11 14 17 18 20 22 21 20 20 19 20 21 19 15 10 9 10 11 11 11 10 10 11 11 12 13 14 15 14 14 14 14 14 13 12 12 12 11 11 10 10
10 9 10 11 12 13 16 17 17 19 21 22 25 26 20 13 10 12 14 13 12 11 12 13 13 14 15 15 16 16 15 16 16 16 16 16 16 16 15 14 14 14
10 9 9 9 9 9 12 13 15 18 21 21 23 23 19 15 12 12 13 13 12 11 13 15 15 16 17 17 18 18 18 17 17 17 17 18 18 18 18 17 17 17
10 10 9 9 9 9 10 11 12 14 16 18 19 18 16 14 13 12 11 11 12 12 12 14 15 16 16 17 18 18 18 18 17 17 18 18 17 18 18 18 19 19
10 10 11 10 9 8 9 9 9 9 10 11 12 12 11 11 11 10 9 9 10 12 11 11 14 14 14 14 15 16 17 18 18 17 17 18 18 18 18 19 20 21
13 12 12 11 10 8 8 8 8 7 8 8 8 8 8 7 7 7 8 9 10 11 10 10 12 12 13 13 14 15 16 17 17 16 16 17 17 15 16 17 18 20
16 15 14 14 14 13 10 9 7 5 5 4 6 6 6 5 5 4 4 5 6 7 8 8 9 9 11 12 14 15 16 16 16 15 13 13 13 11 11 12 15 16
Wind_Direction
185 178 172 175 181 181 181 180 180 180 176 174 174 170 168 167 163 163 166 171 175 177 182 181 176 171 164 165 161 148 147 147 140 139 135 133 134 128 128 145 163 177
182 176 173 178 183 182 181 181 179 177 174 172 171 169 169 168 165 167 172 174 171 169 170 165 160 156 153 153 150 140 135 132 128 128 131 133 132 126 119 119 138 156
178 175 176 181 182 177 175 174 172 173 173 172 172 173 173 170 168 170 172 169 159 155 160 162 159 154 153 154 148 138 132 129 130 131 133 140 139 137 130 116 126 143
177 172 174 178 177 174 172 171 170 171 174 176 176 178 177 172 169 170 168 161 154 151 154 162 163 157 157 156 148 141 137 134 138 136 133 142 143 145 145 125 119 136
178 172 173 173 174 175 172 170 172 173 174 176 176 179 177 172 169 168 164 160 158 153 150 159 167 165 162 158 151 147 143 141 142 134 122 131 134 138 149 138 123 128
180 174 173 174 175 176 173 174 175 174 173 173 174 179 177 172 170 167 164 163 164 158 151 155 165 169 166 161 156 150 146 146 143 133 126 129 128 130 140 140 129 126
183 178 176 177 177 175 176 179 176 172 174 172 170 178 178 174 171 169 167 167 166 163 156 152 161 167 166 162 159 156 154 150 141 135 133 129 124 124 128 129 124 122
184 180 178 179 178 174 175 177 175 172 174 172 169 175 178 175 174 173 171 169 166 166 163 156 157 162 162 160 160 159 152 143 138 138 136 128 121 118 119 122 121 120
188 185 181 180 176 174 174 175 176 174 173 174 174 175 174 176 181 179 175 172 169 170 168 163 161 161 159 157 154 149 142 138 138 138 134 127 120 114 113 117 121 125
194 190 185 181 176 176 178 178 178 176 174 176 179 177 174 177 184 182 177 175 173 172 171 168 167 162 157 152 147 141 138 137 137 135 132 128 125 122 119 116 120 128
200 194 188 184 180 181 181 180 180 177 176 178 179 180 179 179 182 180 178 178 175 173 172 169 166 162 156 152 148 142 140 138 137 137 134 133 132 128 126 127 129 137
201 192 184 182 186 190 187 182 183 180 177 178 178 181 182 182 182 181 179 176 172 172 170 166 164 162 158 156 152 148 147 144 142 142 139 138 136 131 132 136 139 151
199 188 182 184 190 192 188 183 184 182 175 175 178 181 183 182 182 181 176 171 170 171 169 166 167 166 164 163 160 158 156 153 152 151 149 150 147 144 147 143 143 158
199 190 188 194 196 191 183 180 183 181 173 171 175 180 182 180 180 180 175 171 171 170 170 171 171 171 171 168 167 168 165 164 165 163 165 169 166 165 167 158 154 162
195 190 188 191 194 190 182 179 182 181 174 171 174 175 175 172 174 178 175 173 171 167 172 176 174 175 178 174 171 175 175 176 181 181 185 188 186 186 187 179 174 181
191 188 187 188 193 195 189 182 181 179 174 173 176 173 168 164 165 169 170 171 171 170 177 182 182 186 190 187 184 184 186 194 200 197 196 199 202 204 206 207 208 218
189 184 187 190 194 197 193 186 184 181 174 172 176 173 169 164 159 160 162 166 172 177 184 191 197 201 200 199 199 196 197 203 205 203 201 203 208 211 217 224 227 234
186 179 179 183 189 197 199 196 194 187 172 167 174 174 169 165 163 165 169 172 175 183 196 205 210 212 210 208 208 207 205 204 203 210 211 212 217 218 221 229 234 243
174 171 173 180 188 197 201 200 203 198 180 174 181 180 174 175 183 188 186 189 192 197 211 218 217 217 218 217 216 218 214 207 208 217 219 219 223 224 226 230 234 242
149 162 175 185 191 196 198 198 207 213 205 197 198 198 200 203 204 198 194 199 205 208 218 225 223 220 221 220 221 222 219 215 217 221 223 225 228 229 232 236 239 245
142 149 161 172 182 193 194 192 198 205 205 204 204 206 213 227 227 210 199 199 204 211 222 228 227 226 225 224 223 223 222 223 226 228 230 233 235 236 238 242 247 252
132 142 152 157 162 177 185 184 187 192 194 198 204 210 222 238 241 223 208 205 211 220 230 234 232 230 229 227 226 226 227 228 231 234 236 238 240 242 244 247 252 255
117 124 132 137 141 158 177 184 188 191 191 194 203 215 227 237 239 231 219 216 222 223 226 233 234 232 233 233 231 231 232 233 237 240 242 244 246 248 249 252 256 257
98 105 113 119 127 143 159 165 169 175 178 186 198 207 214 222 230 233 224 220 226 223 218 228 236 234 235 237 237 238 240 242 245 247 250 254 256 257 259 260 260 260
88 90 94 97 101 109 124 139 149 159 169 183 195 197 198 203 207 213 213 215 225 227 222 232 242 241 240 242 244 246 248 250 254 257 260 264 264 264 263 261 262 264
92 92 93 93 93 92 94 102 113 124 145 178 200 200 205 210 200 206 224 223 231 242 240 243 249 250 251 253 254 255 256 258 262 262 261 262 261 261 263 264 266 269